Voltar ao catálogo

QIANFAN-237

AtivoComunicaçõesPO
NORAD 69866·PAYLOAD·🇨🇳 China

Lançado Jul 5, 2026 de Wenchang Space Launch Site

Loading…

Próximas Passagens (próximas 24 horas)

TLE

AtualizadoSource: Space-Track

Época: Sep 14, 2026, 12:21 UTC

1 69866U 26155U   26257.51478249 -.01836511  00000-0 -28742+1 0  9996
2 69866  89.0081  54.2788 0039773  30.9473 329.4012 13.54405696  9937

Acompanhe QIANFAN-237 em tempo real com AllMySat

Download on the App Store